Location: Piotrkow Trybunalski
(51.4000°N, 19.6830°E)
Time: 05:45:21
(UTC+02:00)

STRAND 1 - Pass Details

Date: 28 February 2024
Orbit: 764 x 779 km, 98.4° (Epoch: 24 April)

Event Time Altitude Azimuth Distance (km) Brightness Sun altitude
Rises 03:54:01 0° 128° (SE) 3,257 ? -24.8°
Reaches altitude 10° 03:56:36 10° 117° (ESE) 2,333 ? -24.4°
Maximum altitude 04:00:55 28° 60° (ENE) 1,442 ? -23.8°
Drops below altitude 10° 04:05:15 10° 3° (N) 2,345 ? -23.2°
Sets 04:07:50 0° 352° (N) 3,276 ? -22.8°
